EPSYEPWA

Guest
Details From EPSY - SZYMANY
To EPWA - WARSZAWA Okecie
Flight Number -
Tags generated
Created
Modified
Stats Distance 79 nm / 146 km
Max Altitude 5,000 ft / 1,524 m
Waypoints 3
Social Downloads 1
Likes 0
Share VATSIM

Download

Looking for another format? Having issues loading an existing format? Contact us
Advertisement - Login to hide

Notes

Basic altitude profile: - Ascent Rate: 2500ft/min - Ascent Speed: 250kts - Cruise Altitude: 35000ft - Cruise Speed: 420kts - Descent Rate: 1500ft/min - Descent Speed: 250kts Options: - Use NATs: yes - Use PACOTS: yes - Use low airways: yes - Use high airways: yes

Route

EPSY ULPAR EPWA

ID Type Via Altitude Latitude Longitude Leg Dist Tot Dist Heading (true) Name
O EPSY APT - 0 ft / 0 m 53.47973˚ 20.93650˚ - 0 nm - SZYMANY
ULPAR FIX - 5,000 ft / 1,524 m 52.55722˚ 21.00972˚ 55 nm 55 nm 177° / 177° -
O EPWA APT - 0 ft / 0 m 52.16509˚ 20.96692˚ 23 nm 79 nm 184° / 184° WARSZAWA Okecie

Altitude Profile

Advertisement - Login to hide

EPSY

Details ICAO EPSY
Name SZYMANY
Region Poland
Timezone Europe/Warsaw (UTC+2.0)
Stats Elevation 463 ft / 141 m (AMSL)
Location 53.479731° 20.936497°
Runways 1
Magnetic Variation 6.074° E

METAR

EPSY 252300Z 04004KT CAVOK 13/12 Q1023

Decode

TAF

Not found

Departure Runways

ID Width Length Bearing (true) Bearing (mag) Surface Threshold Offset Overrun Length
02 197 ft / 60 m 6,556 ft / 1,998 m 18.43° 12.36° Concrete 0 ft / 0 m 0 ft / 0 m
20 197 ft / 60 m 6,556 ft / 1,998 m 198.43° 192.36° Concrete 0 ft / 0 m 0 ft / 0 m

EPWA

Details ICAO EPWA (WAW)
Name WARSZAWA Okecie
Region Poland
Timezone Europe/Warsaw (UTC+2.0)
Stats Elevation 328 ft / 100 m (AMSL)
Location 52.165091° 20.966923°
Runways 2
Magnetic Variation 5.858° E

METAR

EPWA 252300Z 03004KT CAVOK 15/12 Q1022 NOSIG

Decode

TAF

TAF EPWA 252030Z 2521/2621 05008KT CAVOK TEMPO 2521/2606 SHRA BKN040CB PROB40 TEMPO 2521/2606 TSRA PROB40 2600/2606 BKN008 TEMPO 2606/2621 3000 TSRA BKN030CB

Decode

Destination Runways

ID Width Length Bearing (true) Bearing (mag) Surface Threshold Offset Overrun Length
11 164 ft / 50 m 9,163 ft / 2,793 m 114.64° 108.78° Asphalt 0 ft / 0 m 476 ft / 145 m
15 197 ft / 60 m 12,112 ft / 3,692 m 151.85° 145.99° Asphalt 0 ft / 0 m 0 ft / 0 m
29 164 ft / 50 m 9,163 ft / 2,793 m 294.67° 288.81° Asphalt 1,608 ft / 490 m 0 ft / 0 m
33 197 ft / 60 m 12,112 ft / 3,692 m 331.87° 326.01° Asphalt 0 ft / 0 m 0 ft / 0 m

Approach Navaids

Runway Type Ident Frequency Range Bearing (true) Bearing (mag) Slope Elevation
11 Localiser WAS 109.90 MHz 18 nm / 33 km 114.53° 108.68° - 328 ft / 100 m (AMSL)
11 Glidescope WAS 109.90 MHz 10 nm / 19 km 114.66° 108.80° 3.00° 328 ft / 100 m (AMSL)
11 DME WAS 109.90 MHz 18 nm / 33 km - - - 394 ft / 120 m (AMSL)
33 Localiser WA 110.30 MHz 18 nm / 33 km 331.88° 326.02° - 328 ft / 100 m (AMSL)
33 Glidescope WA 110.30 MHz 10 nm / 19 km 331.86° 326.01° 3.00° 328 ft / 100 m (AMSL)
33 DME WA 110.30 MHz 18 nm / 33 km - - - 394 ft / 120 m (AMSL)

Popular Alternatives